Flag for Germany Weather past 2 weeks in Braunschweig, Lower Saxony, Germany

Now
54 °F

Passing clouds.


Feels Like: 54 °F
Forecast: 49 / 60 °F
Wind: 2 mph from Southwest

Location: Celle Airport

Current Time: Oct 25, 2014 at 9:45:26 PM

Latest Report: Oct 25, 2014 at 8:20 PM


Visibility: 6 mi

Pressure: 30.12 "Hg

Humidity: 94%

Dew point: 52 °F

Location of BraunschweigLocation

Historic Weather in Braunschweig — Graph

°F

Braunschweig temperature yesterday

Maximum temperature yesterday: 57 °F (at 2:20 PM)
Minimum temperature yesterday: 50 °F (at 3:20 AM)
Average temperature yesterday: 53 °F

Past Weeks' High & Low Weather Summary

 TemperatureHumidityPressure
High73 °F (Oct 19, 3:20 PM)100% (Oct 11, 12:20 AM)30.21 "Hg (Oct 11, 12:20 AM)
Low46 °F (Oct 17, 5:20 AM)52% (Oct 14, 2:20 PM)29.42 "Hg (Oct 21, 6:20 PM)
Average55 °F88%29.89 "Hg
* Reported Oct 10 8:20 PM — Oct 25 8:20 PM, Braunschweig, Weather by CustomWeather, © 2014

Note: Actual official high and low records may vary slightly from our data, if they occured in-between our weather recording intervals... More about our weather records

Advertising

Braunschweig weather history for previous 24 hours

 ConditionsComfort  
Time TempWeatherWind HumidityBarometerVisibility
8:20 PM
Oct 25
54 °FPassing clouds.2 mph94%30.12 "Hg6 mi
7:20 PM54 °FPassing clouds.3 mph94%30.12 "Hg6 mi
6:20 PM55 °FBroken clouds.5 mph88%30.12 "Hg6 mi
5:20 PM55 °FBroken clouds.6 mph88%30.09 "Hg6 mi
4:20 PM55 °FOvercast.7 mph88%30.09 "Hg6 mi
3:20 PM55 °FOvercast.7 mph88%30.09 "Hg5 mi
2:20 PM55 °FOvercast.6 mph88%30.07 "Hg4 mi
1:20 PM54 °FOvercast.7 mph88%30.07 "Hg6 mi
12:20 PM54 °FOvercast.3 mph88%30.07 "HgN/A
11:20 AM52 °FOvercast.5 mph88%30.07 "Hg5 mi
10:20 AM52 °FPartly sunny.3 mph88%30.07 "Hg5 mi
9:20 AM50 °FPartly sunny.5 mph94%30.07 "HgN/A
8:20 AM48 °FPassing clouds.3 mph94%30.04 "Hg6 mi
7:20 AM48 °FPartly cloudy.3 mph94%30.04 "HgN/A
6:20 AM50 °FLight rain. Overcast.3 mph82%30.04 "HgN/A
5:20 AM48 °FSprinkles. Partly cloudy.3 mph87%30.04 "HgN/A
4:20 AM48 °FPassing clouds.3 mph87%30.04 "HgN/A
3:20 AM48 °FPartly cloudy.3 mph94%30.07 "HgN/A
2:20 AM48 °FPassing clouds.2 mph87%30.07 "HgN/A
1:20 AM50 °FPassing clouds.7 mph82%30.07 "HgN/A
12:20 AM50 °FPassing clouds.5 mph88%30.07 "HgN/A
11:20 PM
Oct 24
52 °FPartly cloudy.6 mph82%30.09 "HgN/A
10:20 PM52 °FPassing clouds.5 mph82%30.09 "HgN/A
9:20 PM52 °FPartly cloudy.5 mph77%30.09 "HgN/A
Weather by CustomWeather, © 2014

See weather overviewHow to use our weather pages